QPF
0.00 0.00 0.00 0.00 0.00 0.00 0.00 0.00 0.00 0.00 0.00 0.00 0.00 0.00 0.00 0.00 0.00 0.00 0.00 0.00 0.00 0.00 0.00 0.00 0.01 0.01 0.00 0.00 0.01 0.01 0.00 0.00 0.01 0.01 0.00 0.01 0.00 0.00 0.00 0.00 0.00 0.00 0.00
0.00 0.00 0.00 0.00 0.00 0.00 0.00 0.00 0.00 0.00 0.00 0.00 0.00 0.00 0.00 0.00 0.00 0.00 0.00 0.00 0.00 0.00 0.00 0.00 0.01 0.01 0.01 0.00 0.01 0.01 0.01 0.01 0.01 0.00 0.00 0.00 0.00 0.00 0.00 0.00 0.00 0.00 0.00
0.00 0.00 0.00 0.00 0.00 0.00 0.00 0.00 0.00 0.00 0.00 0.00 0.00 0.00 0.00 0.00 0.00 0.00 0.00 0.00 0.00 0.00 0.00 0.00 0.00 0.01 0.01 0.01 0.00 0.00 0.00 0.01 0.00 0.00 0.00 0.01 0.00 0.00 0.00 0.00 0.00 0.00 0.00
0.00 0.00 0.00 0.00 0.00 0.00 0.00 0.00 0.00 0.00 0.00 0.00 0.00 0.00 0.00 0.00 0.00 0.00 0.00 0.00 0.00 0.00 0.00 0.00 0.00 0.00 0.01 0.01 0.01 0.00 0.00 0.00 0.00 0.00 0.00 0.00 0.00 0.00 0.00 0.00 0.00 0.00 0.00
0.00 0.00 0.00 0.00 0.00 0.00 0.00 0.00 0.00 0.00 0.00 0.00 0.00 0.00 0.00 0.00 0.00 0.00 0.00 0.00 0.00 0.00 0.00 0.00 0.00 0.00 0.00 0.01 0.01 0.01 0.01 0.00 0.00 0.00 0.00 0.00 0.00 0.00 0.00 0.00 0.00 0.00 0.00
0.00 0.00 0.00 0.00 0.00 0.00 0.00 0.00 0.00 0.00 0.00 0.00 0.00 0.00 0.00 0.00 0.00 0.00 0.00 0.00 0.00 0.00 0.00 0.00 0.00 0.00 0.00 0.00 0.00 0.01 0.01 0.01 0.00 0.00 0.00 0.00 0.00 0.00 0.00 0.00 0.00 0.00 0.00
0.00 0.00 0.00 0.00 0.00 0.00 0.00 0.00 0.00 0.00 0.00 0.00 0.00 0.00 0.00 0.00 0.00 0.00 0.00 0.00 0.00 0.00 0.00 0.00 0.00 0.00 0.00 0.00 0.00 0.00 0.00 0.00 0.00 0.00 0.00 0.00 0.00 0.00 0.00 0.00 0.00 0.00 0.00
0.00 0.00 0.00 0.00 0.00 0.00 0.00 0.00 0.00 0.00 0.00 0.00 0.00 0.00 0.00 0.00 0.00 0.00 0.00 0.00 0.00 0.00 0.00 0.00 0.00 0.00 0.00 0.00 0.00 0.00 0.00 0.00 0.00 0.00 0.00 0.00 0.00 0.00 0.00 0.00 0.00 0.00 0.00
0.00 0.00 0.00 0.00 0.00 0.00 0.00 0.00 0.00 0.00 0.00 0.00 0.00 0.00 0.00 0.00 0.00 0.00 0.00 0.00 0.00 0.00 0.00 0.00 0.00 0.00 0.00 0.00 0.00 0.00 0.00 0.00 0.00 0.00 0.00 0.00 0.00 0.00 0.00 0.00 0.00 0.00 0.00
0.01 0.00 0.00 0.00 0.00 0.00 0.00 0.00 0.00 0.00 0.00 0.00 0.00 0.00 0.00 0.00 0.00 0.00 0.00 0.00 0.00 0.00 0.00 0.00 0.00 0.00 0.00 0.00 0.00 0.00 0.00 0.00 0.00 0.00 0.00 0.00 0.00 0.00 0.00 0.00 0.00 0.00 0.00
0.01 0.00 0.00 0.00 0.00 0.00 0.00 0.00 0.00 0.00 0.00 0.00 0.00 0.00 0.00 0.00 0.00 0.00 0.00 0.00 0.00 0.00 0.00 0.00 0.00 0.00 0.00 0.00 0.00 0.00 0.00 0.00 0.00 0.00 0.00 0.00 0.00 0.00 0.00 0.00 0.00 0.00 0.00
0.00 0.00 0.00 0.00 0.00 0.00 0.00 0.00 0.00 0.00 0.00 0.00 0.00 0.00 0.00 0.00 0.00 0.00 0.00 0.00 0.00 0.00 0.00 0.00 0.00 0.00 0.00 0.00 0.00 0.00 0.00 0.00 0.00 0.00 0.00 0.00 0.00 0.00 0.00 0.00 0.00 0.00 0.00
0.00 0.00 0.00 0.00 0.00 0.00 0.00 0.00 0.00 0.00 0.00 0.00 0.00 0.00 0.00 0.00 0.00 0.00 0.00 0.00 0.00 0.00 0.00 0.00 0.00 0.00 0.00 0.00 0.00 0.00 0.00 0.00 0.00 0.00 0.00 0.00 0.00 0.00 0.00 0.00 0.00 0.00 0.00
0.00 0.00 0.00 0.00 0.00 0.00 0.00 0.00 0.00 0.00 0.00 0.00 0.00 0.00 0.00 0.00 0.00 0.00 0.00 0.00 0.00 0.00 0.00 0.00 0.00 0.00 0.00 0.00 0.00 0.00 0.00 0.00 0.00 0.00 0.00 0.00 0.00 0.00 0.00 0.00 0.00 0.00 0.00
0.00 0.00 0.00 0.00 0.00 0.00 0.00 0.00 0.00 0.00 0.00 0.00 0.00 0.00 0.00 0.00 0.00 0.00 0.00 0.00 0.00 0.00 0.00 0.00 0.00 0.00 0.00 0.00 0.00 0.00 0.00 0.00 0.00 0.00 0.00 0.00 0.00 0.00 0.00 0.00 0.00 0.00 0.00
0.00 0.00 0.00 0.00 0.00 0.00 0.00 0.00 0.00 0.00 0.00 0.00 0.00 0.00 0.00 0.00 0.00 0.00 0.00 0.00 0.00 0.00 0.00 0.00 0.00 0.00 0.00 0.00 0.00 0.00 0.00 0.00 0.00 0.00 0.00 0.00 0.00 0.00 0.00 0.00 0.00 0.00 0.00
0.00 0.00 0.00 0.00 0.00 0.00 0.00 0.00 0.00 0.00 0.00 0.00 0.00 0.00 0.00 0.00 0.00 0.00 0.00 0.00 0.00 0.00 0.00 0.00 0.00 0.00 0.00 0.00 0.00 0.00 0.00 0.00 0.00 0.00 0.00 0.00 0.00 0.00 0.00 0.00 0.00 0.00 0.00
0.00 0.00 0.00 0.00 0.00 0.00 0.00 0.00 0.00 0.00 0.00 0.00 0.00 0.00 0.00 0.00 0.00 0.00 0.00 0.00 0.00 0.00 0.00 0.00 0.00 0.00 0.00 0.00 0.00 0.00 0.00 0.00 0.00 0.00 0.00 0.00 0.00 0.00 0.00 0.00 0.00 0.00 0.00
0.00 0.00 0.00 0.00 0.00 0.00 0.00 0.00 0.00 0.00 0.00 0.00 0.00 0.00 0.00 0.00 0.00 0.00 0.00 0.00 0.00 0.00 0.00 0.00 0.00 0.00 0.00 0.00 0.00 0.00 0.00 0.00 0.00 0.00 0.00 0.00 0.00 0.00 0.00 0.00 0.00 0.00 0.00
0.00 0.00 0.00 0.00 0.00 0.00 0.00 0.00 0.00 0.00 0.00 0.00 0.00 0.00 0.00 0.00 0.00 0.00 0.00 0.00 0.00 0.00 0.00 0.00 0.00 0.00 0.00 0.00 0.00 0.00 0.00 0.00 0.00 0.00 0.00 0.00 0.00 0.00 0.00 0.00 0.00 0.00 0.00
0.00 0.00 0.00 0.00 0.00 0.00 0.00 0.00 0.00 0.00 0.00 0.00 0.00 0.00 0.00 0.00 0.00 0.00 0.00 0.00 0.00 0.00 0.00 0.00 0.00 0.00 0.00 0.00 0.00 0.00 0.00 0.00 0.00 0.00 0.00 0.00 0.00 0.00 0.00 0.00 0.00 0.00 0.00
0.00 0.00 0.00 0.00 0.00 0.00 0.00 0.00 0.00 0.00 0.00 0.00 0.00 0.00 0.00 0.00 0.00 0.00 0.00 0.00 0.00 0.00 0.00 0.00 0.00 0.00 0.00 0.00 0.00 0.00 0.00 0.00 0.00 0.00 0.00 0.00 0.00 0.00 0.00 0.00 0.00 0.00 0.00
0.00 0.00 0.00 0.00 0.00 0.00 0.00 0.00 0.00 0.00 0.00 0.00 0.00 0.00 0.00 0.00 0.00 0.00 0.00 0.00 0.00 0.00 0.00 0.00 0.00 0.00 0.00 0.00 0.00 0.00 0.00 0.00 0.00 0.00 0.00 0.00 0.00 0.00 0.00 0.00 0.00 0.00 0.00
0.00 0.00 0.00 0.00 0.00 0.00 0.00 0.00 0.00 0.00 0.00 0.00 0.00 0.00 0.00 0.00 0.00 0.00 0.00 0.00 0.00 0.00 0.00 0.00 0.00 0.00 0.00 0.00 0.00 0.00 0.00 0.00 0.00 0.00 0.00 0.00 0.00 0.00 0.00 0.00 0.00 0.00 0.00
0.00 0.00 0.00 0.00 0.00 0.00 0.00 0.00 0.00 0.00 0.00 0.00 0.00 0.00 0.00 0.00 0.00 0.00 0.00 0.00 0.00 0.00 0.00 0.00 0.00 0.00 0.00 0.00 0.00 0.00 0.00 0.00 0.00 0.00 0.00 0.00 0.00 0.00 0.00 0.00 0.00 0.00 0.00
0.00 0.00 0.00 0.00 0.00 0.00 0.00 0.00 0.00 0.00 0.00 0.00 0.00 0.00 0.00 0.00 0.00 0.00 0.00 0.00 0.00 0.00 0.00 0.00 0.00 0.00 0.00 0.00 0.00 0.00 0.00 0.00 0.00 0.00 0.00 0.00 0.00 0.00 0.00 0.00 0.00 0.00 0.00
MSLP
1023.02 1023.55 1024.27 1025.10 1025.81 1026.44 1026.95 1027.53 1028.05 1028.58 1029.06 1029.41 1029.69 1029.81 1030.08 1030.21 1030.43 1030.52 1030.46 1030.38 1030.28 1029.97 1030.03 1030.20 1030.34 1030.45 1030.49 1030.59 1030.74 1030.89 1030.92 1030.92 1030.90 1030.94 1030.79 1030.77 1030.73 1030.66 1030.42 1030.11 1030.01 1029.85 1029.61
1023.00 1023.56 1024.34 1025.21 1025.91 1026.56 1027.17 1027.77 1028.33 1028.93 1029.57 1029.84 1030.27 1030.59 1030.78 1030.94 1031.19 1031.30 1031.45 1031.35 1031.27 1031.07 1030.87 1030.81 1030.82 1030.86 1030.97 1031.11 1031.24 1031.35 1031.40 1031.37 1031.42 1031.41 1031.18 1031.04 1031.07 1030.99 1030.93 1030.76 1030.46 1030.21 1029.86
1023.02 1023.73 1024.40 1025.16 1025.95 1026.51 1027.29 1028.03 1028.84 1029.32 1029.91 1030.46 1030.91 1031.21 1031.52 1031.68 1031.86 1032.13 1032.37 1032.24 1032.27 1032.15 1031.91 1031.62 1031.43 1031.30 1031.32 1031.46 1031.57 1031.65 1031.76 1031.82 1031.89 1031.78 1031.61 1031.54 1031.58 1031.48 1031.33 1031.13 1030.86 1030.53 1030.30
1023.00 1023.78 1024.50 1025.28 1025.92 1026.48 1027.18 1028.14 1029.02 1029.69 1030.27 1030.91 1031.54 1031.65 1032.01 1032.22 1032.44 1032.67 1032.90 1032.99 1032.91 1033.07 1032.92 1032.62 1032.32 1031.96 1031.76 1031.68 1031.94 1032.06 1032.15 1032.20 1032.14 1032.16 1032.04 1031.83 1031.79 1031.87 1031.71 1031.55 1031.26 1031.10 1030.97
1023.04 1023.64 1024.45 1025.33 1025.94 1026.55 1027.11 1028.01 1029.17 1029.56 1030.41 1031.26 1031.93 1032.52 1032.62 1033.08 1032.92 1033.10 1033.33 1033.49 1033.54 1033.63 1033.70 1033.51 1033.23 1032.84 1032.46 1032.28 1032.28 1032.31 1032.45 1032.42 1032.46 1032.47 1032.48 1032.45 1032.36 1032.13 1032.10 1032.00 1031.85 1031.70 1031.39
1022.95 1023.53 1024.26 1025.29 1025.89 1026.57 1027.10 1028.04 1029.06 1030.03 1030.28 1030.96 1032.14 1033.09 1033.32 1033.58 1033.57 1033.63 1033.74 1033.93 1034.10 1034.17 1034.31 1034.40 1034.16 1033.90 1033.34 1033.00 1032.84 1032.70 1032.66 1032.70 1032.88 1032.84 1032.79 1032.80 1032.71 1032.69 1032.46 1032.40 1032.36 1032.25 1031.96
1022.69 1023.23 1024.11 1025.05 1025.76 1026.30 1026.81 1027.78 1028.94 1029.85 1031.02 1031.34 1032.28 1033.47 1033.91 1033.92 1034.09 1034.07 1034.16 1034.33 1034.62 1034.72 1034.84 1034.87 1034.83 1034.66 1034.46 1033.97 1033.31 1033.16 1033.21 1033.27 1033.30 1033.34 1033.18 1033.16 1032.99 1033.04 1033.01 1032.92 1032.83 1032.51 1032.37
1022.38 1022.87 1023.70 1024.63 1025.39 1026.31 1027.14 1027.84 1028.45 1029.79 1030.85 1031.09 1031.71 1032.79 1033.85 1034.27 1034.30 1034.30 1034.55 1034.60 1035.01 1035.08 1035.17 1035.21 1035.22 1035.11 1034.96 1034.72 1034.28 1033.97 1033.73 1033.68 1033.63 1033.61 1033.64 1033.57 1033.43 1033.42 1033.33 1033.30 1032.93 1032.66 1032.44
1022.13 1022.63 1023.36 1024.17 1025.05 1025.90 1026.68 1027.26 1028.07 1028.74 1030.11 1030.92 1030.92 1031.28 1032.83 1033.33 1034.10 1034.50 1034.64 1034.82 1035.16 1035.36 1035.56 1035.58 1035.55 1035.54 1035.49 1035.32 1035.12 1034.86 1034.57 1034.35 1034.18 1034.11 1034.09 1033.92 1033.89 1033.69 1033.69 1033.46 1033.30 1033.11 1032.86
1021.77 1022.42 1023.07 1023.82 1024.57 1025.50 1026.39 1026.97 1027.58 1028.32 1028.98 1030.06 1030.82 1030.81 1030.89 1031.36 1033.09 1034.39 1034.74 1035.01 1035.24 1035.33 1035.72 1035.78 1035.75 1035.70 1035.76 1035.72 1035.31 1035.18 1035.11 1034.94 1034.74 1034.56 1034.39 1034.24 1034.24 1034.04 1033.85 1033.71 1033.58 1033.46 1033.28
1021.50 1022.15 1022.81 1023.59 1024.33 1025.00 1025.83 1026.55 1027.50 1028.14 1028.62 1029.23 1029.82 1030.63 1030.98 1031.39 1031.77 1032.68 1034.31 1035.03 1035.23 1035.44 1035.65 1035.74 1035.86 1035.88 1035.92 1035.91 1035.67 1035.41 1035.47 1035.40 1035.20 1034.98 1034.82 1034.69 1034.57 1034.45 1034.29 1034.10 1033.97 1033.85 1033.71
1021.24 1021.86 1022.55 1023.23 1023.97 1024.66 1025.49 1026.17 1026.84 1027.39 1028.03 1028.64 1029.23 1029.62 1029.89 1030.38 1031.24 1031.76 1033.17 1034.47 1034.79 1035.26 1035.37 1035.68 1035.85 1035.94 1035.92 1035.88 1035.61 1035.55 1035.72 1035.68 1035.61 1035.53 1035.29 1035.20 1035.15 1034.96 1034.75 1034.63 1034.40 1034.23 1034.14
1021.05 1021.52 1022.22 1022.94 1023.63 1024.13 1024.92 1025.75 1026.34 1026.90 1027.48 1028.14 1028.63 1029.14 1029.22 1029.40 1029.85 1030.85 1031.77 1033.29 1034.09 1034.75 1035.07 1035.31 1035.44 1035.73 1035.78 1035.77 1035.63 1035.59 1035.70 1035.85 1035.82 1035.80 1035.67 1035.61 1035.62 1035.48 1035.30 1035.00 1034.82 1034.63 1034.51
1020.28 1021.00 1021.78 1022.40 1023.13 1023.76 1024.50 1025.26 1025.77 1026.28 1026.94 1027.58 1028.07 1028.55 1028.94 1029.04 1029.26 1029.73 1030.70 1031.92 1033.69 1034.26 1034.60 1034.77 1035.12 1035.36 1035.57 1035.62 1035.63 1035.61 1035.76 1035.90 1035.93 1035.94 1035.88 1035.77 1035.74 1035.69 1035.50 1035.31 1035.15 1034.98 1034.86
1019.66 1020.43 1021.26 1021.98 1022.63 1023.28 1023.90 1024.68 1025.34 1025.93 1026.56 1027.17 1027.62 1028.12 1028.53 1028.68 1028.89 1029.17 1029.69 1030.16 1031.32 1033.18 1033.92 1034.23 1034.62 1034.88 1035.22 1035.45 1035.47 1035.64 1035.83 1035.84 1035.88 1035.99 1035.96 1035.82 1035.81 1035.79 1035.68 1035.51 1035.39 1035.24 1035.05
1019.06 1019.91 1020.73 1021.49 1022.04 1022.81 1023.50 1024.09 1024.72 1025.41 1026.03 1026.59 1027.19 1027.87 1028.23 1028.41 1028.61 1028.87 1029.29 1029.68 1030.24 1031.10 1032.60 1033.38 1034.05 1034.28 1034.74 1035.09 1035.23 1035.54 1035.76 1035.74 1035.80 1035.85 1035.92 1035.79 1035.76 1035.70 1035.73 1035.71 1035.60 1035.47 1035.31
1018.42 1019.24 1019.96 1020.82 1021.49 1022.13 1022.96 1023.71 1024.17 1024.74 1025.47 1026.00 1026.60 1027.26 1027.69 1027.99 1028.27 1028.69 1029.05 1029.47 1030.05 1030.54 1031.84 1033.32 1033.60 1034.00 1034.45 1034.69 1034.93 1035.33 1035.55 1035.63 1035.68 1035.74 1035.81 1035.77 1035.71 1035.69 1035.77 1035.75 1035.64 1035.53 1035.55
1017.55 1018.32 1019.33 1020.04 1020.76 1021.46 1022.15 1023.01 1023.45 1024.10 1024.65 1025.41 1025.94 1026.79 1027.18 1027.76 1028.11 1028.48 1028.82 1029.15 1029.54 1030.13 1030.89 1032.33 1033.24 1033.82 1033.99 1034.28 1034.49 1034.98 1035.17 1035.29 1035.52 1035.60 1035.58 1035.61 1035.54 1035.61 1035.59 1035.64 1035.63 1035.54 1035.51
1016.87 1017.90 1018.57 1019.28 1020.03 1020.74 1021.51 1022.25 1022.78 1023.29 1023.89 1024.55 1025.19 1026.13 1026.53 1027.18 1027.89 1028.24 1028.53 1029.04 1029.44 1030.01 1030.38 1031.22 1032.54 1033.20 1033.80 1034.08 1034.57 1034.75 1034.95 1035.01 1035.16 1035.26 1035.27 1035.26 1035.21 1035.17 1035.25 1035.38 1035.39 1035.31 1035.31
1016.28 1017.22 1017.81 1018.53 1019.23 1020.04 1020.85 1021.50 1022.14 1022.79 1023.35 1023.97 1024.57 1025.22 1025.73 1026.27 1026.91 1027.50 1028.05 1028.54 1029.04 1029.81 1030.31 1030.84 1031.71 1032.34 1032.93 1033.50 1033.86 1034.16 1034.56 1034.59 1034.62 1034.65 1034.64 1034.66 1034.69 1034.75 1034.73 1034.78 1034.88 1034.85 1034.92
1015.64 1016.50 1017.36 1018.05 1018.70 1019.43 1020.15 1020.81 1021.62 1022.27 1023.02 1023.64 1024.19 1024.76 1025.17 1025.44 1025.90 1026.48 1027.04 1028.00 1028.63 1029.38 1030.08 1030.64 1031.35 1031.86 1032.32 1032.80 1032.93 1033.20 1033.47 1033.84 1033.99 1034.14 1034.18 1034.23 1034.25 1034.14 1034.05 1034.15 1034.28 1034.34 1034.38
1015.27 1016.09 1016.80 1017.40 1018.17 1018.76 1019.36 1020.04 1020.86 1021.86 1022.55 1023.16 1023.84 1024.38 1024.81 1025.28 1025.88 1026.32 1026.59 1027.14 1027.52 1028.35 1029.17 1029.91 1030.54 1030.92 1031.30 1031.59 1032.08 1032.43 1033.00 1033.60 1033.76 1032.83 1033.28 1033.10 1033.37 1033.29 1033.29 1033.33 1033.20 1033.43 1033.60
1014.74 1015.58 1016.23 1016.88 1017.64 1018.26 1018.82 1019.56 1020.29 1021.31 1022.07 1022.61 1023.16 1023.88 1024.48 1024.86 1025.58 1026.10 1026.71 1027.01 1027.37 1027.58 1027.66 1028.37 1029.05 1029.54 1030.06 1030.29 1030.92 1031.80 1032.13 1032.40 1032.42 1032.69 1032.99 1032.72 1032.80 1032.58 1032.39 1032.22 1032.31 1032.36 1032.60
1014.11 1014.98 1015.72 1016.37 1017.19 1017.84 1018.52 1019.33 1020.08 1020.78 1021.61 1022.04 1022.48 1023.21 1023.81 1024.37 1024.94 1025.60 1026.36 1026.86 1027.02 1027.24 1027.49 1027.83 1028.00 1028.26 1028.66 1029.41 1029.82 1030.10 1030.92 1031.67 1032.26 1032.42 1032.77 1032.79 1032.33 1032.00 1031.55 1031.33 1031.35 1031.43 1031.68
1013.79 1014.38 1015.16 1016.07 1016.73 1017.47 1018.16 1018.85 1019.74 1020.43 1021.36 1021.83 1022.27 1022.74 1023.24 1023.94 1024.55 1025.00 1025.73 1026.51 1026.90 1027.12 1027.33 1027.61 1027.93 1028.15 1028.46 1028.94 1029.45 1030.10 1030.83 1031.54 1031.78 1031.93 1032.27 1032.34 1031.95 1031.71 1031.17 1030.79 1030.65 1030.74 1030.92
1012.91 1013.89 1014.72 1015.51 1016.14 1016.85 1017.54 1018.27 1019.10 1020.02 1021.07 1021.63 1022.15 1022.56 1023.06 1023.28 1023.98 1024.60 1025.15 1025.68 1026.61 1026.84 1027.18 1027.51 1027.87 1028.00 1028.10 1028.49 1028.86 1028.79 1029.46 1030.33 1030.92 1031.25 1031.20 1031.71 1031.74 1031.65 1031.20 1030.65 1030.36 1030.15 1030.10
Thickness
5673 5668 5662 5655 5648 5642 5639 5635 5630 5625 5621 5616 5611 5608 5604 5601 5597 5593 5588 5585 5581 5581 5579 5575 5571 5568 5567 5564 5559 5555 5552 5549 5545 5541 5538 5534 5530 5526 5523 5520 5516 5512 5509
5670 5666 5660 5653 5646 5640 5634 5629 5625 5619 5613 5610 5605 5600 5597 5593 5589 5586 5582 5578 5573 5572 5571 5569 5566 5564 5561 5558 5555 5551 5548 5545 5541 5537 5533 5529 5525 5520 5516 5512 5509 5506 5504
5668 5662 5657 5652 5645 5638 5631 5625 5618 5613 5608 5602 5599 5595 5590 5587 5583 5579 5574 5573 5569 5564 5563 5563 5561 5559 5557 5554 5551 5548 5544 5540 5536 5532 5528 5524 5519 5515 5511 5507 5503 5500 5496
5665 5658 5653 5647 5643 5637 5630 5622 5614 5608 5603 5597 5592 5590 5586 5582 5579 5575 5570 5566 5564 5560 5556 5555 5554 5554 5553 5551 5547 5544 5540 5536 5531 5527 5523 5519 5515 5510 5505 5501 5497 5492 5487
5661 5656 5649 5643 5639 5634 5629 5620 5611 5607 5599 5592 5587 5582 5581 5575 5574 5570 5566 5562 5558 5555 5552 5548 5548 5548 5547 5546 5544 5541 5536 5532 5528 5523 5518 5513 5508 5505 5500 5494 5489 5485 5481
5659 5653 5647 5640 5635 5630 5627 5618 5610 5601 5598 5593 5585 5576 5575 5570 5568 5565 5562 5557 5553 5551 5547 5544 5543 5542 5541 5539 5538 5536 5533 5528 5523 5518 5513 5508 5503 5499 5494 5489 5483 5478 5473
5658 5652 5646 5639 5633 5630 5625 5617 5608 5600 5591 5589 5581 5572 5567 5565 5562 5560 5558 5554 5548 5545 5542 5540 5538 5537 5535 5533 5532 5531 5527 5523 5517 5512 5508 5504 5499 5494 5488 5483 5477 5472 5466
5655 5651 5646 5638 5632 5626 5620 5614 5608 5598 5590 5589 5583 5574 5565 5562 5558 5556 5553 5548 5543 5539 5537 5536 5533 5531 5529 5528 5525 5524 5522 5517 5512 5508 5503 5499 5494 5489 5484 5478 5473 5468 5463
5653 5649 5644 5637 5631 5626 5620 5615 5608 5603 5595 5587 5587 5584 5568 5567 5556 5552 5549 5544 5540 5536 5533 5531 5530 5526 5524 5523 5520 5517 5514 5511 5507 5502 5498 5493 5489 5485 5479 5474 5467 5462 5457
5651 5646 5642 5636 5631 5625 5619 5613 5608 5603 5600 5590 5583 5584 5582 5577 5562 5553 5546 5542 5538 5534 5531 5528 5527 5524 5521 5518 5516 5513 5509 5505 5501 5498 5493 5489 5484 5480 5475 5469 5463 5457 5452
5648 5644 5640 5633 5629 5624 5618 5612 5606 5601 5599 5594 5590 5582 5579 5574 5570 5564 5548 5540 5536 5532 5528 5526 5524 5522 5518 5515 5513 5509 5504 5501 5496 5493 5489 5484 5480 5475 5470 5464 5458 5453 5447
5646 5642 5638 5632 5628 5623 5617 5611 5607 5604 5600 5596 5591 5588 5586 5581 5573 5568 5553 5540 5538 5531 5529 5525 5522 5519 5517 5513 5510 5506 5501 5497 5493 5488 5485 5480 5475 5471 5466 5459 5454 5449 5443
5642 5640 5634 5629 5625 5622 5617 5611 5608 5605 5601 5597 5593 5588 5587 5585 5581 5572 5564 5547 5541 5533 5529 5526 5523 5519 5515 5512 5508 5504 5499 5494 5490 5485 5481 5476 5471 5466 5461 5456 5450 5445 5439
5640 5637 5632 5627 5624 5620 5616 5611 5607 5605 5601 5598 5594 5590 5585 5585 5583 5578 5569 5556 5540 5534 5529 5528 5523 5519 5514 5510 5505 5500 5496 5492 5487 5482 5478 5474 5469 5463 5459 5454 5448 5442 5436
5637 5635 5630 5625 5622 5619 5616 5611 5606 5604 5601 5597 5595 5591 5586 5583 5582 5579 5573 5568 5558 5539 5534 5528 5524 5520 5514 5508 5504 5499 5495 5490 5485 5481 5476 5472 5467 5461 5457 5451 5445 5439 5434
5634 5633 5628 5623 5621 5618 5614 5611 5608 5604 5601 5598 5594 5589 5586 5583 5581 5578 5573 5568 5562 5554 5545 5532 5524 5521 5514 5508 5504 5498 5493 5488 5483 5480 5474 5470 5466 5461 5455 5449 5442 5436 5431
5634 5631 5628 5624 5621 5618 5612 5610 5609 5606 5602 5598 5594 5590 5586 5583 5580 5576 5572 5567 5560 5555 5544 5529 5524 5520 5514 5509 5504 5498 5491 5486 5482 5477 5472 5468 5465 5460 5453 5447 5441 5435 5428
5635 5631 5626 5624 5621 5619 5614 5610 5610 5607 5605 5599 5595 5589 5586 5581 5577 5574 5570 5566 5561 5554 5548 5535 5525 5518 5515 5510 5505 5498 5491 5486 5481 5475 5471 5467 5464 5458 5453 5446 5439 5433 5427
5633 5626 5626 5624 5622 5618 5614 5611 5610 5608 5605 5601 5597 5589 5587 5581 5574 5571 5567 5562 5557 5551 5548 5540 5527 5519 5512 5507 5501 5496 5490 5485 5480 5475 5470 5467 5464 5459 5453 5446 5439 5433 5427
5630 5625 5626 5623 5622 5618 5614 5611 5609 5607 5604 5600 5596 5591 5586 5582 5577 5571 5565 5561 5556 5549 5544 5539 5530 5523 5516 5509 5502 5498 5490 5485 5480 5476 5472 5468 5464 5459 5454 5448 5442 5435 5428
5627 5624 5621 5620 5619 5617 5614 5612 5608 5605 5600 5597 5593 5588 5585 5583 5580 5575 5568 5559 5554 5547 5540 5534 5528 5522 5516 5510 5506 5500 5495 5488 5482 5477 5472 5468 5464 5461 5457 5450 5443 5436 5429
5621 5618 5618 5619 5617 5617 5614 5611 5608 5602 5597 5594 5590 5585 5582 5579 5575 5572 5568 5562 5557 5549 5541 5534 5528 5524 5518 5513 5506 5501 5493 5486 5481 5484 5476 5474 5467 5464 5459 5453 5448 5440 5433
5619 5615 5615 5616 5616 5614 5612 5608 5606 5599 5594 5592 5589 5583 5579 5576 5571 5566 5562 5558 5554 5551 5549 5541 5533 5528 5521 5518 5510 5500 5495 5490 5487 5481 5474 5472 5469 5464 5461 5459 5453 5446 5438
5616 5613 5612 5612 5611 5610 5606 5603 5600 5596 5590 5589 5587 5582 5578 5574 5569 5564 5558 5553 5551 5548 5544 5539 5535 5531 5525 5518 5511 5507 5500 5491 5482 5478 5471 5468 5468 5465 5464 5461 5457 5450 5442
5611 5613 5610 5607 5608 5606 5602 5599 5595 5592 5585 5582 5581 5579 5575 5570 5566 5562 5556 5549 5545 5543 5540 5535 5529 5525 5521 5516 5509 5502 5494 5486 5482 5477 5471 5466 5465 5465 5465 5462 5458 5452 5444
5612 5607 5606 5604 5603 5602 5598 5596 5594 5589 5581 5577 5573 5572 5570 5568 5564 5559 5554 5550 5540 5538 5535 5530 5525 5521 5518 5513 5508 5504 5498 5489 5481 5478 5474 5467 5461 5461 5463 5460 5457 5454 5447